Time,TemperatureF,DewpointF,PressureIn,WindDirection,WindDirectionDegrees,WindSpeedMPH,WindSpeedGustMPH,Humidity,HourlyPrecipIn,Conditions,Clouds,dailyrainin,SolarRadiationWatts/m^2,SoftwareType,DateUTC
2013-05-23 00:04:00,65.8,65.5,29.86,SSE,163,1.0,3.0,99,0.00,,,0.00,0,Wunderground v.1.15,2013-05-23 04:04:00,
2013-05-23 00:09:00,65.8,65.5,29.86,East,97,1.0,3.0,99,0.00,,,0.00,0,Wunderground v.1.15,2013-05-23 04:09:00,
2013-05-23 00:14:00,65.7,65.4,29.86,East,96,1.0,1.0,99,0.00,,,0.00,0,Wunderground v.1.15,2013-05-23 04:14:00,
2013-05-23 00:24:00,65.6,65.3,29.87,ESE,119,1.0,4.0,99,0.00,,,0.00,0,Wunderground v.1.15,2013-05-23 04:24:00,
2013-05-23 00:29:00,65.6,65.3,29.87,East,96,1.0,5.0,99,0.00,,,0.00,0,Wunderground v.1.15,2013-05-23 04:29:00,
2013-05-23 00:34:00,65.6,65.3,29.86,NW,325,2.0,2.0,99,0.00,,,0.00,0,Wunderground v.1.15,2013-05-23 04:34:00,
2013-05-23 00:44:00,65.5,65.2,29.86,SE,124,1.0,2.0,99,0.00,,,0.00,0,Wunderground v.1.15,2013-05-23 04:44:00,
2013-05-23 00:49:00,65.4,65.1,29.86,SE,139,1.0,2.0,99,0.00,,,0.00,0,Wunderground v.1.15,2013-05-23 04:49:00,
2013-05-23 00:54:00,65.4,65.1,29.86,ESE,104,2.0,2.0,99,0.00,,,0.00,0,Wunderground v.1.15,2013-05-23 04:54:00,
2013-05-23 00:59:00,65.4,65.1,29.86,NNW,344,2.0,2.0,99,0.00,,,0.00,0,Wunderground v.1.15,2013-05-23 04:59:00,
2013-05-23 01:04:00,65.4,65.1,29.86,ESE,120,2.0,2.0,99,0.00,,,0.00,0,Wunderground v.1.15,2013-05-23 05:04:00,
2013-05-23 01:09:00,65.4,65.1,29.86,SW,214,1.0,2.0,99,0.00,,,0.00,0,Wunderground v.1.15,2013-05-23 05:09:00,
2013-05-23 01:14:00,65.4,65.1,29.86,SSE,154,1.0,1.0,99,0.00,,,0.00,0,Wunderground v.1.15,2013-05-23 05:14:00,
2013-05-23 01:24:00,65.3,65.0,29.86,SE,128,1.0,1.0,99,0.00,,,0.00,0,Wunderground v.1.15,2013-05-23 05:24:00,
2013-05-23 01:29:00,65.3,65.0,29.86,ESE,108,1.0,1.0,99,0.00,,,0.00,0,Wunderground v.1.15,2013-05-23 05:29:00,
2013-05-23 01:34:00,65.2,64.9,29.85,East,92,1.0,1.0,99,0.00,,,0.00,0,Wunderground v.1.15,2013-05-23 05:34:00,
2013-05-23 01:39:00,65.2,64.9,29.85,ESE,121,1.0,2.0,99,0.00,,,0.00,0,Wunderground v.1.15,2013-05-23 05:39:00,
2013-05-23 01:44:00,65.1,64.8,29.85,SSE,153,1.0,2.0,99,0.00,,,0.00,0,Wunderground v.1.15,2013-05-23 05:44:00,
2013-05-23 01:49:00,65.0,64.7,29.84,SSE,163,1.0,2.0,99,0.00,,,0.00,0,Wunderground v.1.15,2013-05-23 05:49:00,
2013-05-23 01:54:00,64.9,64.6,29.85,SSE,163,0.0,0.0,99,0.00,,,0.00,0,Wunderground v.1.15,2013-05-23 05:54:00,
2013-05-23 01:59:00,64.8,64.5,29.85,SSE,163,0.0,0.0,99,0.00,,,0.00,0,Wunderground v.1.15,2013-05-23 05:59:00,
2013-05-23 02:04:00,64.7,64.4,29.84,SE,146,0.0,0.0,99,0.00,,,0.00,0,Wunderground v.1.15,2013-05-23 06:04:00,
2013-05-23 02:09:00,64.7,64.4,29.84,SE,146,1.0,1.0,99,0.00,,,0.00,0,Wunderground v.1.15,2013-05-23 06:09:00,
2013-05-23 02:14:00,64.6,64.3,29.84,SE,146,0.0,0.0,99,0.00,,,0.00,0,Wunderground v.1.15,2013-05-23 06:14:00,
2013-05-23 02:19:00,64.6,64.3,29.84,SE,146,0.0,1.0,99,0.00,,,0.00,0,Wunderground v.1.15,2013-05-23 06:19:00,
2013-05-23 02:24:00,64.6,64.3,29.84,SE,145,0.0,3.0,99,0.00,,,0.00,0,Wunderground v.1.15,2013-05-23 06:24:00,
2013-05-23 02:29:00,64.6,64.3,29.83,SE,145,1.0,3.0,99,0.00,,,0.00,0,Wunderground v.1.15,2013-05-23 06:29:00,
2013-05-23 02:34:00,64.6,64.6,29.83,South,175,0.0,0.0,100,0.00,,,0.00,0,Wunderground v.1.15,2013-05-23 06:34:00,
2013-05-23 02:39:00,64.6,64.6,29.83,South,175,1.0,1.0,100,0.00,,,0.00,0,Wunderground v.1.15,2013-05-23 06:39:00,
2013-05-23 02:44:00,64.5,64.5,29.83,SSE,164,1.0,1.0,100,0.00,,,0.00,0,Wunderground v.1.15,2013-05-23 06:44:00,
2013-05-23 02:54:00,64.5,64.5,29.83,SSE,156,0.0,1.0,100,0.00,,,0.00,0,Wunderground v.1.15,2013-05-23 06:54:00,
2013-05-23 02:59:00,64.5,64.5,29.83,SE,132,1.0,1.0,100,0.00,,,0.00,0,Wunderground v.1.15,2013-05-23 06:59:00,
2013-05-23 03:04:00,64.4,64.4,29.83,SE,131,1.0,1.0,100,0.00,,,0.00,0,Wunderground v.1.15,2013-05-23 07:04:00,
2013-05-23 03:09:00,64.4,64.4,29.83,SSE,158,1.0,1.0,100,0.00,,,0.00,0,Wunderground v.1.15,2013-05-23 07:09:00,
2013-05-23 03:14:00,64.4,64.4,29.83,SSE,155,2.0,3.0,100,0.00,,,0.00,0,Wunderground v.1.15,2013-05-23 07:14:00,
2013-05-23 03:24:00,64.2,64.2,29.83,SE,128,2.0,2.0,100,0.00,,,0.00,0,Wunderground v.1.15,2013-05-23 07:24:00,
2013-05-23 03:34:00,64.1,64.1,29.82,SSE,151,1.0,2.0,100,0.00,,,0.00,0,Wunderground v.1.15,2013-05-23 07:34:00,
2013-05-23 03:39:00,64.1,64.1,29.83,SE,142,0.0,2.0,100,0.00,,,0.00,0,Wunderground v.1.15,2013-05-23 07:39:00,
2013-05-23 03:44:00,64.1,64.1,29.83,South,185,1.0,1.0,100,0.00,,,0.00,0,Wunderground v.1.15,2013-05-23 07:44:00,
2013-05-23 03:49:00,64.1,64.1,29.83,SE,128,1.0,1.0,100,0.00,,,0.00,0,Wunderground v.1.15,2013-05-23 07:49:00,
2013-05-23 03:54:00,64.1,64.1,29.83,ESE,121,2.0,2.0,100,0.00,,,0.00,0,Wunderground v.1.15,2013-05-23 07:54:00,
2013-05-23 04:04:00,64.1,64.1,29.83,SSE,159,1.0,1.0,100,0.00,,,0.00,0,Wunderground v.1.15,2013-05-23 08:04:00,
2013-05-23 04:09:00,64.1,64.1,29.83,NE,44,1.0,1.0,100,0.00,,,0.00,0,Wunderground v.1.15,2013-05-23 08:09:00,
2013-05-23 04:14:00,64.1,64.1,29.83,ESE,122,1.0,1.0,100,0.00,,,0.00,0,Wunderground v.1.15,2013-05-23 08:14:00,
2013-05-23 04:24:00,64.2,64.2,29.83,East,92,1.0,1.0,100,0.00,,,0.00,0,Wunderground v.1.15,2013-05-23 08:24:00,
2013-05-23 04:29:00,64.2,64.2,29.83,SW,234,1.0,2.0,100,0.00,,,0.00,0,Wunderground v.1.15,2013-05-23 08:29:00,
2013-05-23 04:34:00,64.3,64.3,29.83,SE,125,1.0,1.0,100,0.00,,,0.00,0,Wunderground v.1.15,2013-05-23 08:34:00,
2013-05-23 04:39:00,64.3,64.3,29.84,NNE,32,1.0,1.0,100,0.00,,,0.00,0,Wunderground v.1.15,2013-05-23 08:39:00,
2013-05-23 04:44:00,64.4,64.4,29.83,SSW,192,1.0,3.0,100,0.00,,,0.00,0,Wunderground v.1.15,2013-05-23 08:44:00,
2013-05-23 04:49:00,64.4,64.4,29.83,SE,134,1.0,3.0,100,0.00,,,0.00,0,Wunderground v.1.15,2013-05-23 08:49:00,
2013-05-23 04:59:00,64.3,64.3,29.83,South,184,1.0,1.0,100,0.00,,,0.00,0,Wunderground v.1.15,2013-05-23 08:59:00,
2013-05-23 05:09:00,64.3,64.3,29.83,SSW,195,0.0,2.0,100,0.00,,,0.00,0,Wunderground v.1.15,2013-05-23 09:09:00,
2013-05-23 05:14:00,64.3,64.3,29.83,SSW,204,1.0,1.0,100,0.00,,,0.00,0,Wunderground v.1.15,2013-05-23 09:14:00,
2013-05-23 05:24:00,64.3,64.3,29.83,East,101,0.0,0.0,100,0.00,,,0.00,0,Wunderground v.1.15,2013-05-23 09:24:00,
2013-05-23 05:29:00,64.3,64.3,29.83,ESE,116,0.0,0.0,100,0.00,,,0.00,0,Wunderground v.1.15,2013-05-23 09:29:00,
2013-05-23 05:34:00,64.3,64.3,29.83,ESE,112,1.0,1.0,100,0.00,,,0.00,5,Wunderground v.1.15,2013-05-23 09:34:00,
2013-05-23 05:39:00,64.3,64.3,29.83,ESE,112,1.0,2.0,100,0.00,,,0.00,9,Wunderground v.1.15,2013-05-23 09:39:00,
2013-05-23 05:44:00,64.3,64.3,29.83,ESE,103,1.0,2.0,100,0.00,,,0.00,14,Wunderground v.1.15,2013-05-23 09:44:00,
2013-05-23 05:49:00,64.3,64.3,29.83,East,98,1.0,2.0,100,0.00,,,0.00,14,Wunderground v.1.15,2013-05-23 09:49:00,
2013-05-23 05:59:00,64.3,64.3,29.84,ENE,57,2.0,2.0,100,0.00,,,0.00,9,Wunderground v.1.15,2013-05-23 09:59:00,
2013-05-23 06:09:00,64.3,64.3,29.85,SSW,211,1.0,2.0,100,0.00,,,0.00,9,Wunderground v.1.15,2013-05-23 10:09:00,
2013-05-23 06:14:00,64.3,64.3,29.84,SSE,149,1.0,1.0,100,0.00,,,0.00,11,Wunderground v.1.15,2013-05-23 10:14:00,
2013-05-23 06:19:00,64.3,64.3,29.84,SSE,148,1.0,1.0,100,0.00,,,0.00,12,Wunderground v.1.15,2013-05-23 10:19:00,
2013-05-23 06:24:00,64.3,64.3,29.84,East,101,1.0,1.0,100,0.00,,,0.00,14,Wunderground v.1.15,2013-05-23 10:24:00,
2013-05-23 06:34:00,64.3,64.3,29.84,SSE,150,1.0,2.0,100,0.00,,,0.00,21,Wunderground v.1.15,2013-05-23 10:34:00,
2013-05-23 06:39:00,64.2,64.2,29.85,East,92,2.0,2.0,100,0.00,,,0.00,26,Wunderground v.1.15,2013-05-23 10:39:00,
2013-05-23 06:49:00,64.2,64.2,29.85,SSE,159,1.0,2.0,100,0.00,,,0.00,25,Wunderground v.1.15,2013-05-23 10:49:00,
2013-05-23 06:54:00,64.1,64.1,29.86,SE,138,1.0,3.0,100,0.00,,,0.00,19,Wunderground v.1.15,2013-05-23 10:54:00,
2013-05-23 06:59:00,64.0,64.0,29.86,SE,138,1.0,3.0,100,0.00,,,0.00,18,Wunderground v.1.15,2013-05-23 10:59:00,
2013-05-23 07:04:00,64.0,64.0,29.86,ESE,109,1.0,1.0,100,0.00,,,0.00,23,Wunderground v.1.15,2013-05-23 11:04:00,
2013-05-23 07:14:00,63.8,63.8,29.86,ESE,121,1.0,1.0,100,0.00,,,0.00,33,Wunderground v.1.15,2013-05-23 11:14:00,
2013-05-23 07:19:00,63.7,63.7,29.86,SE,140,1.0,1.0,100,0.00,,,0.00,37,Wunderground v.1.15,2013-05-23 11:19:00,
2013-05-23 07:24:00,63.6,63.6,29.86,SE,130,1.0,1.0,100,0.00,,,0.00,33,Wunderground v.1.15,2013-05-23 11:24:00,
2013-05-23 07:29:00,63.6,63.6,29.86,WSW,248,1.0,1.0,100,0.00,,,0.00,39,Wunderground v.1.15,2013-05-23 11:29:00,
2013-05-23 07:34:00,63.6,63.6,29.86,SE,127,1.0,2.0,100,0.00,,,0.00,37,Wunderground v.1.15,2013-05-23 11:34:00,
2013-05-23 07:44:00,63.6,63.6,29.87,SE,128,1.0,1.0,100,0.00,,,0.00,35,Wunderground v.1.15,2013-05-23 11:44:00,
2013-05-23 07:49:00,63.5,63.5,29.87,SSW,195,1.0,1.0,100,0.00,,,0.00,39,Wunderground v.1.15,2013-05-23 11:49:00,
2013-05-23 07:54:00,63.6,63.6,29.87,SE,130,1.0,2.0,100,0.00,,,0.00,42,Wunderground v.1.15,2013-05-23 11:54:00,
2013-05-23 08:04:00,63.7,63.7,29.86,SW,214,0.0,0.0,100,0.00,,,0.00,47,Wunderground v.1.15,2013-05-23 12:04:00,
2013-05-23 08:14:00,63.9,63.9,29.86,SSE,158,0.0,0.0,100,0.00,,,0.00,60,Wunderground v.1.15,2013-05-23 12:14:00,
2013-05-23 08:24:00,64.0,64.0,29.87,SE,136,0.0,0.0,100,0.00,,,0.00,58,Wunderground v.1.15,2013-05-23 12:24:00,
2013-05-23 08:29:00,64.1,64.1,29.87,SSE,153,0.0,3.0,100,0.00,,,0.00,93,Wunderground v.1.15,2013-05-23 12:29:00,
2013-05-23 08:34:00,64.2,64.2,29.86,SE,141,0.0,2.0,100,0.00,,,0.00,74,Wunderground v.1.15,2013-05-23 12:34:00,
2013-05-23 08:39:00,64.3,64.3,29.86,SE,136,1.0,3.0,100,0.00,,,0.01,93,Wunderground v.1.15,2013-05-23 12:39:00,
2013-05-23 08:44:00,64.4,64.4,29.86,SE,146,1.0,1.0,100,0.00,,,0.01,104,Wunderground v.1.15,2013-05-23 12:44:00,
2013-05-23 08:49:00,64.5,64.5,29.86,SE,146,1.0,1.0,100,0.00,,,0.01,153,Wunderground v.1.15,2013-05-23 12:49:00,
2013-05-23 08:59:00,64.8,64.8,29.86,South,176,1.0,1.0,100,0.00,,,0.01,104,Wunderground v.1.15,2013-05-23 12:59:00,
2013-05-23 09:04:00,64.9,64.9,29.86,ENE,65,0.0,0.0,100,0.00,,,0.01,88,Wunderground v.1.15,2013-05-23 13:04:00,
2013-05-23 09:14:00,65.0,65.0,29.86,South,175,1.0,2.0,100,0.00,,,0.01,86,Wunderground v.1.15,2013-05-23 13:14:00,
2013-05-23 09:19:00,65.2,65.2,29.86,SE,144,1.0,2.0,100,0.00,,,0.01,135,Wunderground v.1.15,2013-05-23 13:19:00,
2013-05-23 09:29:00,65.6,65.6,29.86,ENE,58,2.0,2.0,100,0.00,,,0.01,246,Wunderground v.1.15,2013-05-23 13:29:00,
2013-05-23 09:34:00,66.0,66.0,29.86,ENE,64,2.0,2.0,100,0.00,,,0.01,125,Wunderground v.1.15,2013-05-23 13:34:00,
2013-05-23 09:44:00,65.8,65.8,29.87,ENE,61,2.0,3.0,100,0.00,,,0.01,97,Wunderground v.1.15,2013-05-23 13:44:00,
2013-05-23 09:49:00,65.6,65.6,29.87,East,84,2.0,3.0,100,0.00,,,0.01,58,Wunderground v.1.15,2013-05-23 13:49:00,
2013-05-23 09:54:00,65.6,65.6,29.87,SSW,196,2.0,2.0,100,0.00,,,0.01,91,Wunderground v.1.15,2013-05-23 13:54:00,
2013-05-23 09:59:00,65.6,65.6,29.87,ESE,117,2.0,2.0,100,0.00,,,0.01,93,Wunderground v.1.15,2013-05-23 13:59:00,
2013-05-23 10:04:00,65.6,65.6,29.86,ESE,111,2.0,2.0,100,0.00,,,0.01,137,Wunderground v.1.15,2013-05-23 14:04:00,
2013-05-23 10:09:00,65.8,65.8,29.86,SW,224,1.0,4.0,100,0.00,,,0.01,84,Wunderground v.1.15,2013-05-23 14:09:00,
2013-05-23 10:19:00,65.9,65.9,29.86,ESE,120,1.0,3.0,100,0.00,,,0.01,146,Wunderground v.1.15,2013-05-23 14:19:00,
2013-05-23 10:29:00,66.3,66.3,29.87,ENE,77,2.0,2.0,100,0.00,,,0.01,204,Wunderground v.1.15,2013-05-23 14:29:00,
2013-05-23 10:34:00,66.4,66.4,29.87,South,188,2.0,3.0,100,0.00,,,0.01,130,Wunderground v.1.15,2013-05-23 14:34:00,
2013-05-23 10:39:00,66.5,66.5,29.87,East,92,2.0,3.0,100,0.00,,,0.01,105,Wunderground v.1.15,2013-05-23 14:39:00,
2013-05-23 10:44:00,66.6,66.6,29.87,SSE,163,1.0,1.0,100,0.00,,,0.01,74,Wunderground v.1.15,2013-05-23 14:44:00,
2013-05-23 10:49:00,66.6,66.6,29.87,East,96,1.0,1.0,100,0.00,,,0.02,79,Wunderground v.1.15,2013-05-23 14:49:00,
2013-05-23 10:54:00,66.5,66.5,29.87,SE,140,1.0,1.0,100,0.09,,,0.03,102,Wunderground v.1.15,2013-05-23 14:54:00,
2013-05-23 11:04:00,66.6,66.6,29.86,ENE,57,1.0,1.0,100,0.09,,,0.05,120,Wunderground v.1.15,2013-05-23 15:04:00,
2013-05-23 11:14:00,66.9,66.9,29.86,East,96,0.0,1.0,100,0.05,,,0.05,174,Wunderground v.1.15,2013-05-23 15:14:00,
2013-05-23 11:19:00,67.1,67.1,29.86,SE,124,0.0,2.0,100,0.00,,,0.05,146,Wunderground v.1.15,2013-05-23 15:19:00,
2013-05-23 11:24:00,67.2,67.2,29.86,ESE,117,1.0,2.0,100,0.00,,,0.06,151,Wunderground v.1.15,2013-05-23 15:24:00,
2013-05-23 11:34:00,67.4,67.4,29.86,SE,126,1.0,1.0,100,0.00,,,0.06,171,Wunderground v.1.15,2013-05-23 15:34:00,
2013-05-23 11:44:00,67.4,67.4,29.86,South,187,1.0,1.0,100,0.00,,,0.06,178,Wunderground v.1.15,2013-05-23 15:44:00,
2013-05-23 11:54:00,67.5,67.5,29.86,ESE,116,1.0,2.0,100,0.00,,,0.06,132,Wunderground v.1.15,2013-05-23 15:54:00,
2013-05-23 12:04:00,67.5,67.5,29.86,SW,225,2.0,2.0,100,0.00,,,0.06,123,Wunderground v.1.15,2013-05-23 16:04:00,
2013-05-23 12:09:00,67.4,67.4,29.86,SE,128,2.0,2.0,100,0.00,,,0.06,158,Wunderground v.1.15,2013-05-23 16:09:00,
2013-05-23 12:19:00,67.5,67.5,29.85,SSE,151,2.0,4.0,100,0.00,,,0.06,134,Wunderground v.1.15,2013-05-23 16:19:00,
2013-05-23 12:24:00,67.4,67.4,29.85,SE,130,2.0,2.0,100,0.00,,,0.06,114,Wunderground v.1.15,2013-05-23 16:24:00,
2013-05-23 12:29:00,67.5,67.5,29.85,SSE,165,2.0,2.0,100,0.00,,,0.06,199,Wunderground v.1.15,2013-05-23 16:29:00,
2013-05-23 12:39:00,68.7,68.7,29.84,ESE,119,2.0,2.0,100,0.00,,,0.06,72,Wunderground v.1.15,2013-05-23 16:39:00,
2013-05-23 12:44:00,68.7,68.7,29.84,SSE,149,2.0,2.0,100,0.00,,,0.06,37,Wunderground v.1.15,2013-05-23 16:44:00,
2013-05-23 12:49:00,68.4,68.4,29.84,SE,136,2.0,2.0,100,0.00,,,0.06,79,Wunderground v.1.15,2013-05-23 16:49:00,
2013-05-23 12:59:00,67.8,67.8,29.84,SE,129,2.0,2.0,100,0.95,,,0.12,74,Wunderground v.1.15,2013-05-23 16:59:00,
2013-05-23 13:09:00,67.4,67.4,29.84,SSE,148,2.0,2.0,100,1.04,,,0.19,62,Wunderground v.1.15,2013-05-23 17:09:00,
2013-05-23 13:19:00,67.0,67.0,29.85,SSE,154,1.0,1.0,100,0.36,,,0.26,23,Wunderground v.1.15,2013-05-23 17:19:00,
2013-05-23 13:24:00,66.8,66.8,29.85,SSW,196,1.0,1.0,100,0.09,,,0.27,39,Wunderground v.1.15,2013-05-23 17:24:00,
2013-05-23 13:34:00,66.6,66.6,29.84,SE,143,2.0,2.0,100,0.11,,,0.28,39,Wunderground v.1.15,2013-05-23 17:34:00,
2013-05-23 13:39:00,66.5,66.5,29.84,SSW,196,2.0,2.0,100,0.10,,,0.29,26,Wunderground v.1.15,2013-05-23 17:39:00,
2013-05-23 13:44:00,66.5,66.5,29.85,SE,125,1.0,2.0,100,0.17,,,0.31,16,Wunderground v.1.15,2013-05-23 17:44:00,
2013-05-23 13:54:00,66.3,66.3,29.85,SSW,194,1.0,1.0,100,0.15,,,0.33,7,Wunderground v.1.15,2013-05-23 17:54:00,
2013-05-23 13:59:00,66.3,66.3,29.84,ESE,117,1.0,1.0,100,0.14,,,0.34,7,Wunderground v.1.15,2013-05-23 17:59:00,
2013-05-23 14:09:00,66.2,66.2,29.84,SW,219,1.0,1.0,100,0.15,,,0.37,7,Wunderground v.1.15,2013-05-23 18:09:00,
2013-05-23 14:14:00,66.1,66.1,29.84,SSE,167,1.0,1.0,100,0.20,,,0.38,7,Wunderground v.1.15,2013-05-23 18:14:00,
2013-05-23 14:19:00,66.1,66.1,29.85,SSE,153,1.0,1.0,100,1.28,,,0.46,0,Wunderground v.1.15,2013-05-23 18:19:00,
2013-05-23 14:24:00,66.0,66.0,29.84,SE,130,1.0,5.0,100,0.56,,,0.63,16,Wunderground v.1.15,2013-05-23 18:24:00,
2013-05-23 14:34:00,65.6,65.6,29.84,South,175,2.0,2.0,100,0.48,,,0.68,28,Wunderground v.1.15,2013-05-23 18:34:00,
2013-05-23 14:44:00,64.7,64.4,29.83,SSW,205,1.0,1.0,99,0.28,,,0.72,81,Wunderground v.1.15,2013-05-23 18:44:00,
2013-05-23 14:49:00,64.6,64.3,29.84,SSW,205,0.0,1.0,99,0.11,,,0.72,56,Wunderground v.1.15,2013-05-23 18:49:00,
2013-05-23 14:54:00,64.5,64.2,29.84,SSE,159,0.0,0.0,99,0.15,,,0.74,46,Wunderground v.1.15,2013-05-23 18:54:00,
2013-05-23 14:59:00,64.3,64.0,29.83,ESE,122,1.0,1.0,99,0.66,,,0.79,144,Wunderground v.1.15,2013-05-23 18:59:00,
2013-05-23 15:09:00,64.5,64.5,29.83,SSE,156,1.0,1.0,100,0.06,,,0.79,141,Wunderground v.1.15,2013-05-23 19:09:00,
2013-05-23 15:14:00,64.7,64.7,29.83,SSE,157,1.0,1.0,100,0.04,,,0.79,111,Wunderground v.1.15,2013-05-23 19:14:00,
2013-05-23 15:19:00,64.7,64.7,29.83,SSE,157,0.0,1.0,100,0.00,,,0.80,88,Wunderground v.1.15,2013-05-23 19:19:00,
2013-05-23 15:24:00,64.8,64.8,29.83,South,183,1.0,1.0,100,0.00,,,0.80,58,Wunderground v.1.15,2013-05-23 19:24:00,
2013-05-23 15:29:00,64.9,64.9,29.83,South,184,1.0,1.0,100,0.00,,,0.80,23,Wunderground v.1.15,2013-05-23 19:29:00,
2013-05-23 15:39:00,64.6,64.3,29.82,SE,125,0.0,0.0,99,0.12,,,0.83,37,Wunderground v.1.15,2013-05-23 19:39:00,
2013-05-23 15:49:00,64.6,64.6,29.83,South,188,1.0,1.0,100,0.06,,,0.83,32,Wunderground v.1.15,2013-05-23 19:49:00,
2013-05-23 15:54:00,64.5,64.5,29.82,SE,140,1.0,1.0,100,0.04,,,0.83,28,Wunderground v.1.15,2013-05-23 19:54:00,
2013-05-23 15:59:00,64.5,64.5,29.82,SE,140,0.0,1.0,100,0.04,,,0.84,25,Wunderground v.1.15,2013-05-23 19:59:00,
2013-05-23 16:09:00,64.5,64.5,29.81,SE,139,0.0,0.0,100,0.07,,,0.85,14,Wunderground v.1.15,2013-05-23 20:09:00,
2013-05-23 16:19:00,64.4,64.4,29.81,SE,139,0.0,1.0,100,0.06,,,0.86,12,Wunderground v.1.15,2013-05-23 20:19:00,
2013-05-23 16:24:00,64.4,64.4,29.81,SE,140,0.0,2.0,100,0.20,,,0.88,12,Wunderground v.1.15,2013-05-23 20:24:00,
2013-05-23 16:29:00,64.3,64.3,29.81,SE,146,1.0,2.0,100,0.17,,,0.90,14,Wunderground v.1.15,2013-05-23 20:29:00,
2013-05-23 16:34:00,64.3,64.3,29.81,ESE,123,1.0,1.0,100,0.20,,,0.91,16,Wunderground v.1.15,2013-05-23 20:34:00,
2013-05-23 16:44:00,64.2,64.2,29.82,South,176,1.0,2.0,100,0.27,,,0.93,21,Wunderground v.1.15,2013-05-23 20:44:00,
2013-05-23 16:54:00,64.2,64.2,29.82,ESE,123,1.0,2.0,100,0.36,,,0.98,14,Wunderground v.1.15,2013-05-23 20:54:00,
2013-05-23 16:59:00,64.2,64.2,29.82,SE,134,2.0,2.0,100,0.32,,,1.02,7,Wunderground v.1.15,2013-05-23 20:59:00,
2013-05-23 17:09:00,64.1,64.1,29.81,ESE,107,1.0,3.0,100,0.13,,,1.06,9,Wunderground v.1.15,2013-05-23 21:09:00,
2013-05-23 17:14:00,64.1,64.1,29.82,SSE,168,2.0,4.0,100,0.62,,,1.09,7,Wunderground v.1.15,2013-05-23 21:14:00,
2013-05-23 17:19:00,64.0,64.0,29.82,SSE,153,3.0,4.0,100,0.17,,,1.11,9,Wunderground v.1.15,2013-05-23 21:19:00,
2013-05-23 17:29:00,63.7,63.7,29.81,South,170,2.0,5.0,100,0.10,,,1.13,5,Wunderground v.1.15,2013-05-23 21:29:00,
2013-05-23 17:39:00,63.5,63.5,29.82,SE,136,1.0,2.0,100,0.31,,,1.16,9,Wunderground v.1.15,2013-05-23 21:39:00,
2013-05-23 17:44:00,63.4,63.4,29.82,SSE,154,2.0,4.0,100,0.20,,,1.18,11,Wunderground v.1.15,2013-05-23 21:44:00,
2013-05-23 17:54:00,63.4,63.4,29.82,SE,144,1.0,1.0,100,0.42,,,1.23,5,Wunderground v.1.15,2013-05-23 21:54:00,
2013-05-23 18:04:00,63.4,63.4,29.82,SSE,155,1.0,1.0,100,0.25,,,1.28,14,Wunderground v.1.15,2013-05-23 22:04:00,
2013-05-23 18:09:00,63.5,63.5,29.82,SE,131,2.0,2.0,100,0.17,,,1.30,18,Wunderground v.1.15,2013-05-23 22:09:00,
2013-05-23 18:14:00,63.6,63.6,29.82,WSW,240,2.0,3.0,100,0.13,,,1.31,12,Wunderground v.1.15,2013-05-23 22:14:00,
2013-05-23 18:24:00,63.7,63.7,29.82,South,173,1.0,1.0,100,0.08,,,1.32,9,Wunderground v.1.15,2013-05-23 22:24:00,
2013-05-23 18:29:00,63.7,63.7,29.82,SSW,198,1.0,1.0,100,0.17,,,1.34,11,Wunderground v.1.15,2013-05-23 22:29:00,
2013-05-23 18:39:00,63.7,63.7,29.82,WSW,238,1.0,1.0,100,0.13,,,1.36,14,Wunderground v.1.15,2013-05-23 22:39:00,
2013-05-23 18:44:00,63.7,63.7,29.82,WSW,238,0.0,0.0,100,0.06,,,1.36,11,Wunderground v.1.15,2013-05-23 22:44:00,
2013-05-23 18:49:00,63.7,63.7,29.82,North,9,1.0,1.0,100,0.04,,,1.36,5,Wunderground v.1.15,2013-05-23 22:49:00,
2013-05-23 18:54:00,63.7,63.7,29.82,ESE,107,1.0,3.0,100,0.00,,,1.36,0,Wunderground v.1.15,2013-05-23 22:54:00,
2013-05-23 18:59:00,63.7,63.7,29.81,SSE,162,0.0,3.0,100,0.00,,,1.37,0,Wunderground v.1.15,2013-05-23 22:59:00,
2013-05-23 19:04:00,63.7,63.7,29.81,East,82,1.0,1.0,100,0.13,,,1.38,5,Wunderground v.1.15,2013-05-23 23:04:00,
2013-05-23 19:14:00,63.7,63.7,29.81,South,181,0.0,0.0,100,2.19,,,1.47,0,Wunderground v.1.15,2013-05-23 23:14:00,
2013-05-23 19:19:00,63.7,63.7,29.81,South,181,0.0,0.0,100,0.35,,,1.53,0,Wunderground v.1.15,2013-05-23 23:19:00,
2013-05-23 19:29:00,63.7,63.7,29.81,South,181,0.0,1.0,100,0.11,,,1.56,5,Wunderground v.1.15,2013-05-23 23:29:00,
2013-05-23 19:34:00,63.6,63.6,29.81,South,181,0.0,0.0,100,0.17,,,1.57,0,Wunderground v.1.15,2013-05-23 23:34:00,
2013-05-23 19:44:00,63.6,63.6,29.80,SSE,165,0.0,1.0,100,0.13,,,1.59,0,Wunderground v.1.15,2013-05-23 23:44:00,
2013-05-23 19:49:00,63.6,63.6,29.81,SSE,150,1.0,1.0,100,0.06,,,1.59,0,Wunderground v.1.15,2013-05-23 23:49:00,
2013-05-23 19:59:00,63.5,63.5,29.81,South,188,1.0,2.0,100,0.00,,,1.60,0,Wunderground v.1.15,2013-05-23 23:59:00,
2013-05-23 20:09:00,63.4,63.4,29.81,South,175,2.0,4.0,100,0.06,,,1.61,0,Wunderground v.1.15,2013-05-24 00:09:00,
2013-05-23 20:14:00,63.4,63.4,29.81,SSE,159,2.0,5.0,100,0.06,,,1.61,0,Wunderground v.1.15,2013-05-24 00:14:00,
2013-05-23 20:24:00,63.3,63.3,29.80,SSE,150,2.0,2.0,100,0.08,,,1.62,0,Wunderground v.1.15,2013-05-24 00:24:00,
2013-05-23 20:29:00,63.3,63.3,29.80,SE,139,1.0,2.0,100,0.07,,,1.63,0,Wunderground v.1.15,2013-05-24 00:29:00,
2013-05-23 20:34:00,63.3,63.3,29.80,SSW,196,2.0,4.0,100,0.08,,,1.64,0,Wunderground v.1.15,2013-05-24 00:34:00,
2013-05-23 20:39:00,63.3,63.3,29.80,South,186,2.0,8.0,100,0.10,,,1.65,0,Wunderground v.1.15,2013-05-24 00:39:00,
2013-05-23 20:49:00,63.3,63.3,29.81,SSW,196,2.0,6.0,100,0.22,,,1.69,0,Wunderground v.1.15,2013-05-24 00:49:00,
2013-05-23 20:59:00,63.3,63.3,29.81,SSE,160,2.0,2.0,100,0.27,,,1.73,0,Wunderground v.1.15,2013-05-24 00:59:00,
2013-05-23 21:04:00,63.3,63.3,29.80,SSE,164,1.0,1.0,100,0.17,,,1.75,0,Wunderground v.1.15,2013-05-24 01:04:00,
2013-05-23 21:09:00,63.3,63.3,29.80,SE,132,1.0,5.0,100,0.36,,,1.78,0,Wunderground v.1.15,2013-05-24 01:09:00,
2013-05-23 21:14:00,63.3,63.3,29.80,SSE,157,2.0,5.0,100,0.31,,,1.80,0,Wunderground v.1.15,2013-05-24 01:14:00,
2013-05-23 21:19:00,63.2,63.2,29.80,SSE,147,3.0,5.0,100,0.33,,,1.83,0,Wunderground v.1.15,2013-05-24 01:19:00,
2013-05-23 21:29:00,63.1,63.1,29.79,SE,146,2.0,2.0,100,0.32,,,1.87,0,Wunderground v.1.15,2013-05-24 01:29:00,
2013-05-23 21:34:00,63.0,63.0,29.79,SE,140,3.0,3.0,100,0.28,,,1.90,0,Wunderground v.1.15,2013-05-24 01:34:00,
2013-05-23 21:44:00,62.9,62.9,29.79,East,98,3.0,3.0,100,0.28,,,1.93,0,Wunderground v.1.15,2013-05-24 01:44:00,
2013-05-23 21:49:00,62.8,62.8,29.78,SSE,148,2.0,3.0,100,0.20,,,1.95,0,Wunderground v.1.15,2013-05-24 01:49:00,
2013-05-23 21:54:00,62.8,62.8,29.78,SE,144,2.0,2.0,100,0.16,,,1.96,0,Wunderground v.1.15,2013-05-24 01:54:00,
2013-05-23 22:04:00,62.8,62.8,29.78,SE,144,2.0,2.0,100,0.06,,,1.97,0,Wunderground v.1.15,2013-05-24 02:04:00,
2013-05-23 22:09:00,62.8,62.8,29.78,SE,139,3.0,3.0,100,0.04,,,1.97,0,Wunderground v.1.15,2013-05-24 02:09:00,
2013-05-23 22:19:00,62.7,62.7,29.78,SE,132,1.0,2.0,100,0.00,,,1.97,0,Wunderground v.1.15,2013-05-24 02:19:00,
2013-05-23 22:24:00,62.7,62.7,29.78,East,91,1.0,2.0,100,0.00,,,1.97,0,Wunderground v.1.15,2013-05-24 02:24:00,
2013-05-23 22:29:00,62.7,62.7,29.78,ESE,108,2.0,2.0,100,0.00,,,1.97,0,Wunderground v.1.15,2013-05-24 02:29:00,
2013-05-23 22:39:00,62.7,62.7,29.77,SSE,164,1.0,5.0,100,0.00,,,1.97,0,Wunderground v.1.15,2013-05-24 02:39:00,
2013-05-23 22:49:00,62.7,62.7,29.77,SSE,151,3.0,4.0,100,0.09,,,1.99,0,Wunderground v.1.15,2013-05-24 02:49:00,
2013-05-23 22:59:00,62.7,62.7,29.77,SSW,205,2.0,9.0,100,0.05,,,1.99,0,Wunderground v.1.15,2013-05-24 02:59:00,
2013-05-23 23:09:00,62.7,62.7,29.76,SSE,159,3.0,5.0,100,2.45,,,2.05,0,Wunderground v.1.15,2013-05-24 03:09:00,
2013-05-23 23:14:00,62.7,62.7,29.76,SSE,160,2.0,4.0,100,0.33,,,2.09,0,Wunderground v.1.15,2013-05-24 03:14:00,
2013-05-23 23:19:00,62.7,62.7,29.76,SSW,200,2.0,4.0,100,0.09,,,2.09,0,Wunderground v.1.15,2013-05-24 03:19:00,
2013-05-23 23:24:00,62.7,62.7,29.76,SE,128,2.0,2.0,100,0.28,,,2.12,0,Wunderground v.1.15,2013-05-24 03:24:00,
2013-05-23 23:29:00,62.7,62.7,29.75,East,91,3.0,3.0,100,0.21,,,2.15,0,Wunderground v.1.15,2013-05-24 03:29:00,
2013-05-23 23:34:00,62.7,62.7,29.75,SSE,157,3.0,3.0,100,0.11,,,2.16,0,Wunderground v.1.15,2013-05-24 03:34:00,
2013-05-23 23:44:00,62.7,62.7,29.74,ESE,116,3.0,3.0,100,0.05,,,2.16,0,Wunderground v.1.15,2013-05-24 03:44:00,
2013-05-23 23:49:00,62.6,62.6,29.74,SSE,157,3.0,3.0,100,0.04,,,2.16,0,Wunderground v.1.15,2013-05-24 03:49:00,
2013-05-23 23:59:00,62.6,62.6,29.73,SE,126,2.0,5.0,100,0.00,,,2.17,0,Wunderground v.1.15,2013-05-24 03:59:00,